Temp
-11 -11 -12 -11 -11 -11 -12 -12 -12 -12 -12 -12 -12 -12 -11 -12 -12 -12 -12 -13 -12 -12 -12 -12 -12 -12 -12 -12 -12 -12 -12 -12 -12 -12 -12 -12 -12 -12 -12 -12 -12 -12 -12
-11 -11 -11 -11 -12 -12 -12 -12 -12 -12 -13 -12 -12 -13 -12 -12 -12 -11 -12 -12 -12 -12 -12 -12 -12 -12 -12 -12 -12 -12 -12 -12 -12 -12 -12 -12 -12 -12 -12 -12 -12 -13 -13
-10 -10 -11 -11 -11 -11 -12 -12 -12 -12 -12 -12 -13 -12 -13 -13 -12 -12 -12 -12 -13 -12 -12 -12 -12 -12 -12 -13 -13 -12 -12 -12 -12 -12 -12 -12 -13 -12 -13 -13 -13 -13 -13
-11 -10 -10 -11 -11 -11 -11 -12 -12 -12 -12 -12 -13 -13 -13 -13 -12 -13 -12 -12 -13 -13 -13 -13 -13 -13 -13 -13 -13 -13 -13 -13 -13 -13 -13 -13 -13 -13 -13 -13 -13 -13 -13
-11 -11 -11 -11 -11 -12 -12 -11 -12 -12 -12 -12 -12 -12 -12 -12 -12 -13 -13 -12 -12 -13 -13 -13 -13 -13 -14 -14 -13 -13 -13 -13 -13 -13 -13 -13 -13 -13 -14 -14 -14 -14 -13
-11 -12 -12 -12 -12 -12 -12 -12 -11 -12 -12 -12 -12 -13 -13 -12 -12 -12 -12 -12 -12 -13 -13 -13 -14 -13 -14 -14 -14 -14 -14 -14 -14 -14 -14 -13 -13 -13 -14 -14 -14 -14 -14
-11 -11 -12 -12 -12 -12 -12 -12 -12 -12 -13 -13 -12 -12 -13 -12 -12 -13 -12 -12 -12 -13 -13 -13 -13 -14 -14 -13 -14 -14 -14 -14 -14 -14 -14 -14 -14 -14 -14 -15 -15 -14 -14
-12 -12 -12 -12 -12 -12 -13 -13 -13 -12 -12 -13 -13 -13 -12 -12 -12 -13 -13 -13 -13 -12 -13 -12 -13 -13 -13 -13 -13 -14 -14 -14 -14 -14 -14 -14 -15 -14 -14 -14 -15 -15 -14
-12 -12 -12 -13 -13 -13 -12 -12 -13 -13 -13 -13 -13 -13 -13 -12 -13 -12 -12 -13 -13 -13 -13 -12 -13 -13 -13 -13 -14 -14 -14 -14 -14 -14 -14 -14 -14 -15 -15 -14 -15 -14 -14
-13 -13 -13 -13 -13 -14 -13 -13 -13 -12 -12 -13 -13 -13 -13 -13 -13 -13 -13 -12 -13 -13 -13 -12 -13 -13 -13 -13 -14 -14 -14 -14 -14 -14 -15 -14 -14 -15 -15 -15 -15 -14 -14
-14 -14 -14 -14 -14 -14 -14 -14 -14 -14 -13 -13 -13 -13 -13 -13 -14 -13 -12 -14 -13 -12 -12 -12 -12 -14 -13 -13 -14 -14 -14 -13 -14 -14 -14 -14 -14 -14 -15 -15 -15 -15 -14
-14 -14 -14 -14 -14 -14 -14 -14 -14 -14 -14 -14 -14 -13 -13 -13 -13 -14 -14 -13 -14 -13 -13 -13 -13 -13 -13 -13 -14 -13 -14 -14 -13 -13 -14 -14 -14 -14 -15 -15 -15 -15 -15
-15 -14 -14 -14 -14 -14 -14 -14 -14 -14 -13 -13 -13 -13 -14 -14 -14 -14 -15 -14 -14 -14 -13 -13 -12 -14 -13 -13 -13 -13 -13 -14 -14 -14 -13 -14 -14 -14 -14 -14 -15 -15 -15
-15 -15 -15 -15 -14 -14 -14 -14 -14 -14 -13 -13 -13 -13 -13 -14 -14 -13 -15 -14 -15 -14 -13 -13 -13 -14 -14 -14 -13 -12 -12 -14 -15 -14 -14 -13 -13 -14 -14 -14 -14 -14 -15
-15 -15 -14 -14 -14 -14 -14 -14 -14 -15 -14 -14 -14 -14 -14 -13 -13 -14 -14 -14 -14 -16 -14 -14 -14 -14 -13 -14 -14 -13 -13 -14 -14 -14 -14 -14 -13 -14 -14 -14 -15 -15 -15
-15 -15 -16 -16 -17 -17 -18 -20 -19 -18 -18 -17 -16 -17 -16 -16 -16 -15 -15 -15 -15 -15 -17 -15 -14 -15 -14 -14 -14 -14 -13 -13 -14 -13 -13 -14 -14 -14 -14 -14 -14 -15 -15
-16 -18 -20 -20 -20 -21 -21 -21 -21 -20 -21 -22 -23 -21 -20 -18 -18 -18 -17 -16 -16 -16 -17 -17 -16 -15 -15 -14 -14 -14 -14 -14 -14 -13 -13 -13 -14 -14 -14 -14 -14 -15 -15
-20 -22 -20 -21 -22 -22 -22 -23 -24 -24 -24 -24 -24 -24 -23 -23 -22 -20 -20 -19 -18 -18 -19 -18 -17 -17 -17 -16 -15 -15 -14 -15 -14 -14 -13 -14 -14 -15 -14 -14 -15 -16 -16
-24 -24 -22 -25 -25 -24 -24 -24 -25 -25 -25 -25 -25 -24 -24 -23 -23 -22 -22 -21 -20 -20 -20 -20 -19 -18 -17 -16 -16 -16 -15 -15 -14 -14 -14 -14 -14 -14 -15 -15 -16 -17 -17
-26 -27 -25 -24 -24 -25 -25 -25 -25 -25 -26 -26 -25 -24 -24 -23 -23 -22 -21 -21 -21 -21 -20 -21 -20 -20 -19 -18 -17 -16 -16 -15 -14 -14 -15 -14 -15 -15 -16 -17 -18 -19 -18
-27 -27 -27 -26 -27 -27 -26 -26 -26 -26 -25 -26 -26 -26 -24 -23 -23 -23 -22 -21 -21 -21 -20 -20 -20 -20 -19 -19 -18 -17 -17 -16 -15 -15 -15 -15 -16 -17 -18 -19 -19 -19 -19
-27 -27 -28 -27 -28 -27 -27 -26 -26 -26 -26 -26 -26 -26 -24 -23 -22 -22 -21 -21 -20 -21 -20 -19 -19 -19 -19 -19 -19 -17 -17 -17 -16 -16 -16 -17 -17 -18 -19 -19 -19 -19 -19
-28 -28 -28 -28 -29 -28 -27 -27 -27 -26 -26 -26 -26 -26 -25 -23 -23 -22 -22 -21 -20 -20 -20 -20 -19 -20 -19 -19 -19 -18 -18 -17 -18 -19 -19 -18 -18 -18 -19 -19 -19 -20 -20
-28 -28 -28 -28 -28 -29 -28 -27 -27 -27 -26 -26 -26 -26 -26 -24 -23 -23 -22 -22 -22 -21 -22 -22 -21 -21 -21 -19 -19 -20 -20 -21 -22 -22 -21 -20 -19 -19 -20 -20 -20 -21 -21
-28 -28 -28 -29 -29 -29 -28 -28 -28 -27 -27 -26 -26 -26 -26 -24 -24 -23 -23 -22 -22 -22 -22 -23 -22 -22 -22 -21 -22 -24 -23 -22 -22 -22 -22 -22 -21 -21 -21 -22 -22 -22 -22
-28 -29 -29 -29 -29 -29 -29 -29 -28 -28 -28 -27 -26 -26 -26 -25 -24 -23 -23 -23 -23 -22 -22 -22 -23 -23 -23 -23 -23 -23 -23 -23 -23 -22 -22 -22 -22 -23 -23 -23 -23 -23 -23
Height
5827 5825 5826 5827 5827 5827 5827 5828 5827 5827 5827 5826 5826 5827 5825 5825 5823 5828 5829 5827 5826 5827 5827 5827 5828 5828 5828 5829 5829 5829 5830 5830 5829 5828 5828 5827 5826 5825 5825 5825 5825 5825 5825
5820 5819 5818 5819 5820 5819 5820 5821 5821 5821 5820 5819 5819 5819 5820 5819 5817 5816 5822 5821 5819 5820 5821 5821 5821 5822 5822 5822 5823 5824 5823 5824 5823 5823 5821 5821 5821 5820 5819 5818 5817 5817 5818
5815 5814 5813 5812 5812 5810 5812 5814 5814 5812 5813 5811 5811 5810 5810 5810 5810 5808 5813 5815 5814 5812 5813 5814 5814 5815 5815 5815 5816 5816 5817 5817 5816 5816 5815 5813 5813 5813 5812 5811 5811 5811 5811
5806 5805 5806 5806 5803 5802 5800 5803 5805 5804 5803 5804 5802 5802 5801 5801 5802 5799 5797 5804 5807 5807 5805 5806 5807 5807 5807 5808 5808 5808 5809 5809 5809 5809 5808 5806 5805 5804 5803 5803 5803 5803 5804
5802 5798 5796 5797 5796 5795 5793 5791 5794 5794 5793 5793 5793 5792 5792 5792 5792 5790 5788 5789 5796 5799 5799 5798 5799 5798 5799 5799 5801 5801 5801 5802 5803 5802 5802 5801 5800 5798 5796 5796 5796 5796 5795
5792 5792 5788 5786 5785 5784 5786 5785 5782 5783 5782 5782 5782 5782 5782 5784 5782 5782 5782 5776 5784 5786 5789 5789 5789 5790 5790 5789 5790 5791 5792 5793 5793 5793 5793 5793 5792 5791 5790 5788 5789 5788 5787
5783 5782 5781 5779 5776 5773 5773 5773 5771 5773 5773 5771 5770 5771 5771 5771 5772 5772 5773 5773 5767 5774 5775 5779 5776 5778 5778 5779 5780 5780 5782 5783 5783 5783 5784 5784 5784 5783 5782 5782 5782 5781 5780
5769 5768 5767 5766 5765 5763 5761 5760 5760 5759 5761 5761 5757 5757 5756 5756 5759 5761 5760 5762 5758 5761 5761 5765 5767 5765 5766 5767 5769 5769 5769 5771 5773 5772 5773 5773 5774 5775 5774 5774 5774 5775 5774
5757 5756 5755 5754 5752 5750 5749 5747 5745 5744 5745 5746 5746 5744 5741 5741 5742 5744 5745 5746 5748 5743 5749 5748 5754 5756 5754 5755 5757 5758 5759 5759 5760 5762 5762 5762 5764 5766 5766 5765 5765 5765 5767
5744 5742 5740 5737 5735 5734 5732 5732 5730 5728 5728 5727 5728 5729 5729 5726 5723 5724 5731 5731 5731 5732 5730 5732 5736 5741 5741 5745 5744 5745 5747 5749 5749 5750 5751 5752 5752 5754 5756 5757 5756 5755 5756
5729 5727 5724 5722 5719 5717 5715 5714 5714 5712 5708 5710 5709 5709 5709 5711 5709 5706 5703 5712 5713 5718 5717 5716 5715 5724 5725 5730 5733 5733 5732 5734 5736 5738 5739 5740 5742 5741 5742 5744 5745 5746 5746
5710 5709 5707 5706 5703 5701 5700 5697 5694 5693 5692 5688 5687 5688 5690 5688 5693 5691 5685 5686 5694 5697 5695 5697 5700 5703 5707 5710 5718 5721 5720 5719 5719 5722 5722 5726 5729 5729 5730 5730 5732 5734 5735
5693 5690 5686 5683 5681 5678 5676 5673 5671 5669 5668 5667 5667 5665 5666 5668 5669 5671 5668 5669 5669 5673 5678 5683 5685 5685 5690 5694 5701 5704 5705 5706 5706 5705 5707 5709 5712 5715 5717 5717 5718 5720 5722
5672 5668 5664 5660 5656 5652 5649 5648 5645 5642 5641 5641 5640 5640 5641 5645 5645 5646 5649 5649 5650 5649 5655 5662 5667 5668 5673 5678 5682 5686 5688 5691 5690 5689 5688 5690 5694 5699 5701 5702 5704 5707 5708
5645 5639 5635 5629 5624 5622 5618 5615 5614 5613 5611 5610 5612 5612 5612 5617 5618 5619 5622 5624 5629 5626 5631 5641 5647 5653 5656 5661 5665 5669 5671 5674 5674 5672 5670 5674 5676 5682 5684 5686 5688 5691 5693
5616 5607 5600 5597 5590 5588 5582 5577 5577 5577 5577 5577 5578 5579 5583 5585 5587 5592 5595 5597 5600 5606 5606 5615 5624 5631 5635 5641 5646 5652 5653 5655 5656 5661 5660 5658 5660 5665 5666 5668 5671 5673 5676
5588 5583 5577 5572 5555 5558 5559 5553 5549 5547 5547 5548 5548 5548 5552 5555 5558 5560 5567 5570 5573 5579 5583 5587 5596 5604 5614 5620 5627 5633 5635 5637 5641 5639 5645 5643 5644 5648 5649 5650 5654 5658 5661
5561 5562 5560 5549 5538 5537 5540 5532 5527 5525 5528 5529 5528 5529 5531 5530 5533 5536 5538 5544 5549 5554 5560 5563 5569 5579 5589 5596 5605 5612 5617 5621 5622 5623 5627 5627 5630 5632 5633 5636 5637 5641 5645
5531 5535 5524 5519 5520 5519 5518 5513 5512 5513 5513 5514 5512 5510 5511 5512 5513 5515 5518 5522 5528 5533 5539 5543 5548 5555 5562 5570 5578 5586 5597 5602 5604 5607 5609 5613 5615 5617 5618 5620 5622 5625 5628
5511 5508 5507 5507 5510 5504 5504 5499 5499 5500 5499 5499 5497 5495 5494 5496 5498 5499 5500 5500 5504 5508 5518 5524 5528 5534 5540 5548 5555 5564 5574 5580 5584 5589 5592 5594 5598 5600 5600 5602 5605 5606 5606
5493 5490 5489 5488 5487 5488 5488 5487 5486 5487 5486 5485 5483 5481 5480 5481 5483 5483 5482 5482 5484 5490 5493 5501 5505 5513 5517 5526 5535 5545 5551 5557 5563 5568 5572 5575 5579 5580 5581 5584 5587 5587 5589
5476 5474 5470 5471 5469 5472 5475 5477 5474 5473 5473 5473 5473 5472 5469 5470 5469 5470 5468 5467 5469 5475 5478 5483 5487 5494 5502 5509 5513 5522 5530 5536 5544 5548 5550 5554 5558 5561 5563 5566 5567 5570 5573
5463 5460 5457 5456 5458 5458 5461 5460 5459 5460 5461 5462 5462 5461 5460 5458 5460 5458 5456 5456 5457 5458 5462 5466 5471 5478 5482 5491 5496 5506 5511 5514 5518 5525 5528 5534 5539 5544 5547 5549 5552 5556 5557
5451 5448 5444 5441 5442 5444 5445 5445 5445 5448 5449 5450 5451 5452 5450 5449 5451 5451 5448 5448 5447 5444 5444 5447 5451 5458 5466 5468 5477 5481 5488 5493 5501 5507 5512 5518 5522 5527 5531 5536 5540 5542 5542
5438 5436 5435 5431 5428 5429 5429 5431 5431 5434 5436 5437 5440 5442 5442 5442 5442 5441 5442 5439 5439 5438 5435 5435 5438 5443 5450 5453 5460 5467 5474 5481 5489 5495 5501 5504 5509 5514 5519 5523 5527 5529 5532
5428 5425 5423 5421 5419 5418 5415 5415 5417 5420 5421 5425 5428 5432 5433 5434 5435 5436 5436 5436 5434 5432 5430 5429 5432 5437 5443 5448 5455 5460 5467 5473 5480 5484 5490 5495 5499 5501 5507 5511 5516 5517 5520
Wind_Speed
26 29 30 33 33 32 30 32 32 36 34 33 30 29 33 31 32 26 26 28 29 27 26 27 27 28 27 27 26 26 25 26 27 29 30 32 31 32 32 31 31 31 31
27 28 31 33 35 36 34 30 29 32 34 36 32 32 32 36 38 36 31 31 33 30 30 28 29 29 29 28 29 29 28 29 30 31 31 33 34 35 34 33 32 29 29
32 32 32 33 34 36 34 32 35 38 38 36 32 32 36 39 40 43 40 37 36 37 34 31 30 31 31 31 30 31 31 32 32 33 34 34 35 36 36 35 33 30 28
38 38 36 35 37 37 38 34 31 34 35 34 38 40 39 40 41 40 50 45 41 41 42 38 36 35 34 34 34 33 34 35 35 35 35 34 33 36 36 35 34 32 31
40 44 44 41 40 40 41 44 37 37 38 37 36 37 38 38 41 41 45 48 43 44 45 46 44 42 41 39 39 38 36 36 36 35 35 36 36 36 34 34 34 33 34
44 43 45 46 48 47 43 45 45 38 40 43 41 40 41 37 40 38 38 42 39 47 48 50 49 50 49 47 44 44 40 39 37 36 37 36 37 38 37 33 33 33 33
50 48 47 47 47 49 49 47 49 47 45 48 48 47 45 46 43 44 43 42 46 42 41 44 49 53 56 53 52 48 47 46 42 39 37 39 38 38 38 36 35 35 33
56 55 56 55 54 54 55 55 55 55 53 52 56 56 57 57 53 50 49 48 51 48 46 42 44 48 58 57 49 47 47 47 49 46 40 41 41 41 40 37 36 34 34
60 62 62 62 61 62 63 63 63 63 62 62 61 62 64 66 62 60 60 57 55 57 54 54 47 49 51 49 50 54 47 45 49 52 49 45 43 42 44 42 39 38 37
67 67 69 69 68 66 67 69 71 73 74 72 70 68 69 70 71 72 68 66 63 62 64 64 60 52 54 50 51 52 55 54 52 53 57 54 49 44 44 47 42 42 41
71 73 74 75 75 74 70 68 71 74 79 78 79 79 78 74 75 75 77 75 67 67 68 68 76 59 57 60 51 54 56 62 63 59 57 62 57 51 46 48 48 44 45
78 78 78 78 78 79 82 83 82 79 80 82 80 82 83 80 77 79 87 79 67 72 77 63 70 70 59 61 58 57 53 63 71 70 63 60 61 59 56 52 52 50 49
75 78 78 77 78 80 81 84 85 86 88 88 88 85 83 83 85 80 81 80 83 80 76 76 75 87 62 63 57 58 59 50 63 67 68 66 66 64 58 59 59 56 54
71 75 76 80 83 85 87 90 91 93 93 93 93 93 92 87 85 88 79 87 86 88 85 78 76 61 64 66 64 61 62 61 70 72 73 74 66 70 67 61 62 65 61
85 89 92 95 97 99 101 101 100 100 101 101 100 101 100 97 96 93 89 90 88 90 90 84 77 74 69 72 71 68 67 68 61 68 53 61 63 68 71 72 64 66 66
93 98 101 99 92 94 87 81 87 86 87 88 96 98 97 96 96 96 95 92 92 84 86 82 82 78 81 77 78 72 69 67 60 56 60 67 72 77 75 77 73 66 68
100 91 56 47 47 51 61 64 65 72 74 72 68 71 79 83 86 82 82 86 88 87 82 79 76 86 86 75 70 69 68 63 62 55 57 73 68 72 74 78 79 68 69
85 44 49 57 51 61 55 67 67 65 67 66 65 63 64 66 70 75 76 75 78 78 75 77 74 82 73 89 84 77 68 65 64 59 61 70 64 64 67 66 68 69 69
58 52 60 62 60 59 54 59 58 53 51 55 56 58 60 58 57 61 62 66 69 67 64 70 70 71 78 80 84 84 75 69 67 64 61 70 63 65 63 62 60 61 73
44 51 64 70 59 62 56 53 49 58 55 55 53 57 55 55 51 51 59 62 64 66 60 67 70 66 68 69 74 77 72 68 66 68 65 68 71 69 65 57 57 66 72
49 46 55 56 62 46 49 52 50 53 51 50 48 52 49 52 54 60 51 50 59 63 62 77 67 66 68 72 72 68 77 71 70 68 68 70 70 67 57 55 62 69 70
51 45 50 61 66 51 54 52 48 47 46 45 43 43 42 38 29 42 37 39 41 57 60 62 62 62 69 70 72 73 75 75 73 74 65 64 63 60 56 59 64 65 61
50 46 42 47 49 54 53 56 54 54 51 49 46 42 35 33 29 28 25 29 35 50 67 69 68 71 71 72 75 78 78 68 59 51 50 60 61 58 59 61 60 56 56
48 43 41 34 49 52 55 54 54 54 54 51 45 42 32 28 28 26 23 24 24 29 40 43 53 63 68 72 71 57 49 42 41 44 48 53 53 55 56 53 50 49 46
45 42 36 36 45 46 53 54 50 56 58 56 53 45 34 22 20 18 17 20 22 20 22 24 33 43 49 47 38 35 38 41 41 40 43 43 45 46 44 40 37 38 37
49 44 40 38 36 34 43 50 50 51 48 53 53 47 35 29 17 18 17 17 13 13 13 12 19 20 24 26 29 32 35 34 37 39 40 38 37 36 33 34 34 36 39
Wind_Direction
291 284 284 281 284 284 281 272 272 276 281 275 272 269 271 265 266 260 257 264 264 267 268 271 272 274 275 275 276 277 279 283 285 285 286 285 284 284 285 285 287 290 290
279 282 285 285 282 281 283 286 277 274 277 274 274 270 271 272 268 263 255 264 266 266 270 273 276 276 277 277 279 280 280 281 285 284 284 285 285 284 284 283 282 284 287
285 282 280 284 284 283 279 276 272 275 277 274 268 276 280 266 269 272 266 258 265 267 265 268 271 276 278 279 280 280 282 284 287 287 286 286 285 285 284 282 281 281 285
283 283 282 281 282 284 286 282 277 276 279 277 278 275 277 276 274 280 270 261 258 262 267 266 267 270 272 275 275 277 280 281 284 287 288 287 287 287 284 281 277 277 280
277 278 280 279 277 276 281 286 283 282 280 279 275 279 276 278 269 283 286 267 261 262 266 271 270 269 269 270 271 272 275 276 280 283 286 287 287 288 283 280 277 277 281
275 271 272 275 277 278 277 279 282 280 282 281 277 275 277 277 278 282 279 279 274 270 263 267 270 270 267 267 267 269 269 270 273 277 281 284 286 289 285 279 277 279 276
280 276 270 274 275 275 277 276 277 280 281 281 280 281 275 275 276 280 282 280 277 273 273 269 267 268 269 269 272 268 275 271 267 271 275 277 282 288 285 279 278 278 277
275 274 272 272 270 272 274 274 273 275 275 277 280 279 279 280 279 279 279 277 276 275 275 276 268 270 272 275 269 269 273 277 268 267 266 272 275 283 287 279 274 276 278
274 275 276 275 272 272 273 273 273 273 274 274 273 276 279 282 281 278 279 277 276 278 274 278 274 268 273 272 273 272 270 272 270 267 267 265 270 274 281 282 273 270 275
273 273 273 273 273 272 272 272 273 274 274 275 274 274 275 276 277 278 276 278 277 277 279 280 279 274 273 270 270 272 271 272 270 269 270 267 265 266 272 278 276 270 267
269 269 270 270 270 270 269 271 273 274 274 272 273 275 274 272 271 276 277 275 266 273 275 269 285 271 279 273 268 276 270 272 271 267 270 271 266 264 262 268 271 271 269
272 271 270 269 270 271 270 269 268 269 271 272 273 272 273 273 273 270 269 275 268 270 273 273 272 271 279 273 280 272 277 280 272 282 263 269 268 266 262 260 264 266 267
276 275 273 273 271 271 270 270 271 270 269 269 270 270 269 269 270 269 269 268 271 269 269 268 270 273 270 271 276 286 279 277 279 289 265 263 267 267 264 264 260 262 264
286 286 285 282 281 279 278 276 275 273 272 272 272 272 272 269 267 266 262 265 263 265 267 266 272 260 265 270 270 273 276 278 275 292 278 263 265 269 265 268 265 262 264
289 288 287 285 282 280 279 277 275 272 270 270 270 272 273 271 270 270 267 266 265 263 266 264 259 263 269 264 264 269 273 275 278 282 277 266 267 269 271 267 263 262 264
291 290 289 287 285 279 276 272 274 274 273 271 271 272 270 271 271 271 268 268 268 265 264 264 262 254 261 262 261 262 268 270 266 279 270 264 263 266 267 271 268 263 265
287 290 282 288 274 268 268 270 269 267 264 263 261 260 262 263 264 263 262 262 262 262 261 260 256 251 251 254 256 261 263 266 265 263 277 266 264 266 271 274 273 267 265
291 272 245 249 261 280 279 266 270 271 268 272 267 263 263 265 261 259 259 258 257 257 255 254 255 249 250 249 250 255 256 259 253 251 260 265 265 270 274 279 278 271 271
286 254 238 268 273 287 274 272 270 274 275 269 268 267 265 264 263 260 259 258 257 255 253 249 250 250 249 249 249 247 248 255 253 252 256 265 263 270 274 279 279 277 273
296 264 249 261 269 263 265 275 270 275 275 270 270 264 263 264 264 255 261 259 252 244 249 249 248 248 246 245 244 244 244 246 249 250 254 256 264 268 271 276 274 274 272
301 286 257 256 251 272 259 266 268 273 272 274 273 272 272 267 263 268 268 260 249 241 247 243 247 242 244 244 244 245 241 243 247 251 253 255 259 266 268 269 269 268 271
297 302 270 255 267 269 269 266 267 269 266 272 283 280 269 255 269 264 265 254 247 244 248 242 246 247 245 244 240 240 243 243 246 251 250 253 256 259 261 261 263 266 268
296 297 297 273 271 272 267 260 260 264 268 274 278 285 276 257 269 283 279 268 258 250 247 250 247 247 246 247 247 245 245 236 239 240 245 250 255 260 258 259 262 266 265
291 291 299 284 274 265 266 260 261 265 266 270 275 286 282 279 282 282 279 278 278 264 247 243 244 243 247 236 243 237 228 230 236 240 242 247 249 252 255 260 263 260 255
286 285 288 287 275 270 265 263 263 262 262 264 271 279 276 264 285 271 279 285 280 280 253 236 237 236 229 216 214 223 227 232 239 242 242 244 250 252 253 251 248 248 247
278 279 278 283 282 285 275 265 262 261 263 260 263 269 268 256 270 257 265 280 290 291 272 252 235 233 236 239 235 230 235 242 245 248 250 248 248 246 241 237 237 243 250